Estación de Los Colihues

Ultimos registro cada 15 minutos 52
Estación Fecha / Hora Temperatura Humedad Lluvia Velocidad Dirección Radiación Presion
52 Los Colihues 09-05-2026 12:45 15 50,1 0 2 205 530,6 1010,4
51 Los Colihues 09-05-2026 12:30 14,1 49,5 0 2,5 199 528,1 1010,5
50 Los Colihues 09-05-2026 12:15 14 53 0 2 198 526,9 1010,7
49 Los Colihues 09-05-2026 12:00 13,2 54,2 0 2,5 202 518,1 1010,8
48 Los Colihues 09-05-2026 11:45 12,8 57,1 0 2 204 506,9 1010,8
47 Los Colihues 09-05-2026 11:30 12,2 59,3 0 2 195 495,6 1010,9
46 Los Colihues 09-05-2026 11:15 11,7 58,5 0 2 201 478,1 1011,3
45 Los Colihues 09-05-2026 11:00 11,4 61,4 0 2 197 456,9 1011,5
44 Los Colihues 09-05-2026 10:45 10,5 66,3 0 2,5 205 431,9 1011,3
43 Los Colihues 09-05-2026 10:30 9,8 67,6 0 2,5 198 406,9 1011
42 Los Colihues 09-05-2026 10:15 9,5 68,2 0 1,5 198 378,1 1011,5
41 Los Colihues 09-05-2026 10:00 8,9 74 0 1,5 205 343,1 1011,5
40 Los Colihues 09-05-2026 09:45 8,3 76,4 0 1,5 204 310,6 1011,9
39 Los Colihues 09-05-2026 09:30 7,5 79,6 0 1,5 204 210,6 1012,1
38 Los Colihues 09-05-2026 09:15 6,6 80,2 0 1,5 205 236,9 1012,2
37 Los Colihues 09-05-2026 09:00 6,3 80,4 0 1 208 200,6 1012,3
36 Los Colihues 09-05-2026 08:45 5,8 83,4 0 0 206 168,1 1012,3
35 Los Colihues 09-05-2026 08:30 5,4 86,3 0 0 216 135,6 1012,5
34 Los Colihues 09-05-2026 08:15 4,7 89,4 0 0 236 95,6 1012,5
33 Los Colihues 09-05-2026 08:00 3,4 95,3 0 0 209 51,9 1012,8
32 Los Colihues 09-05-2026 07:45 2,5 94,4 0 0 199 11,9 1013
31 Los Colihues 09-05-2026 07:30 3,1 94,1 0 0 209 1,9 1013
30 Los Colihues 09-05-2026 07:15 2,8 95,5 0 0 202 0,6 1012,9
29 Los Colihues 09-05-2026 07:00 2,9 96,9 0 0 206 0,6 1013
28 Los Colihues 09-05-2026 06:45 2,8 98,2 0 0 227 0,6 1012,9
27 Los Colihues 09-05-2026 06:30 2,2 97,8 0 0 236 0,6 1013
26 Los Colihues 09-05-2026 06:15 1,9 97,7 0 0 236 0,6 1013
25 Los Colihues 09-05-2026 06:00 2,7 96,9 0 0 230 0,6 1013,1
24 Los Colihues 09-05-2026 05:45 3,1 96,4 0 0 226 0,6 1013,2
23 Los Colihues 09-05-2026 05:30 3,6 96,6 0 0 227 0,6 1013,1
22 Los Colihues 09-05-2026 05:15 3,6 96,9 0 0 208 0,6 1013,1
21 Los Colihues 09-05-2026 05:00 4 96,8 0 0 239 0,6 1013,3
20 Los Colihues 09-05-2026 04:45 3,9 95,8 0 0 223 0,6 1013,2
19 Los Colihues 09-05-2026 04:30 4,2 95,8 0 0 215 0,6 1012,9
18 Los Colihues 09-05-2026 04:15 4,6 96,6 0 0 229 0,6 1013
17 Los Colihues 09-05-2026 04:00 4,4 96,1 0 0 227 0,6 1012,9
16 Los Colihues 09-05-2026 03:45 5 96,7 0 0 185 0,6 1013,2
15 Los Colihues 09-05-2026 03:30 5 95,9 0 0 198 0,6 1013,2
14 Los Colihues 09-05-2026 03:15 5,3 95,7 0 0 230 0,6 1013,4
13 Los Colihues 09-05-2026 03:00 5,8 96,3 0 0 201 0,6 1013,4
12 Los Colihues 09-05-2026 02:45 5,4 97,8 0 0 185 0,6 1013,4
11 Los Colihues 09-05-2026 02:30 5,1 96,9 0 0 212 0,6 1013,8
10 Los Colihues 09-05-2026 02:15 6,2 97 0 0 194 0,6 1014
9 Los Colihues 09-05-2026 02:00 6,4 96,7 0 0 199 0,6 1014,1
8 Los Colihues 09-05-2026 01:45 6,6 96,2 0 0,5 194 0,6 1014,1
7 Los Colihues 09-05-2026 01:30 6,9 96,3 0 0,5 194 0,6 1014,1
6 Los Colihues 09-05-2026 01:15 7 96,3 0 0,5 197 0,6 1014
5 Los Colihues 09-05-2026 01:00 7,1 96,7 0 0 201 0,6 1013,9
4 Los Colihues 09-05-2026 00:45 7,2 97 0 0 202 0,6 1013,7
3 Los Colihues 09-05-2026 00:30 7,1 96,9 0 0 206 0,6 1013,7
2 Los Colihues 09-05-2026 00:15 7,5 96,7 0 0 223 0,6 1013,8
1 Los Colihues 09-05-2026 00:00 7,8 96,5 0 0 191 0,6 1013,7